Location: Chrome
(40.5765°N, 74.2163°W)
Time: 16:57:17
(UTC+00:00)

Cosmos 1733 Rocket - Pass Details

Date: 06 December 2019
Orbit: 604 x 627 km, 82.5° (Epoch: 23 January)

Event Time Altitude Azimuth Distance (km) Brightness Sun altitude
Rises 23:10:09 0° 344° (NNW) 2,883 6.5 -18.5°
Reaches altitude 10° 23:12:27 10° 337° (NNW) 1,978 5.7 -18.9°
Maximum altitude 23:16:33 41° 268° (W) 902 4.4 -19.7°
Drops below altitude 10° 23:20:39 10° 198° (SSW) 1,976 6.0 -20.4°
Sets 23:22:58 0° 191° (SSW) 2,881 6.8 -20.9°
